Вернуться в каталог

FREGAT RB/CLUSTER 2

АктивенНаукаHEO
NORAD 26106·PAYLOAD·🇷🇺 Russia

Запущен Mar 20, 2000 с Baikonur Cosmodrome

Loading…

Ближайшие Пролёты (ближайшие 24 часа)

TLE

СвежийSource: Space-Track

Эпоха: Sep 13, 2026, 19:40 UTC

1 26106U 00015A   26256.81965102  .00000018  00000-0  46237-4 0  9999
2 26106  65.1037  92.5455 5467407 258.8295  38.0407  4.61259870442296

Отслеживайте FREGAT RB/CLUSTER 2 в реальном времени с AllMySat

Download on the App Store